Location: Moscow
(55.7500°N, 37.5830°E)
Time: 12:30:22
(UTC+03:00)

S-56A Canister/Altair - Pass Details

Date: 05 December 2021
Orbit: 633 x 2499 km, 38.9° (Epoch: 17 January)

Event Time Altitude Azimuth Distance (km) Brightness Sun altitude
Rises 01:43:32 0° 237° (WSW) 4,787 - -53.2°
Reaches altitude 10° 01:48:08 10° 222° (SW) 3,419 - -52.9°
Maximum altitude 01:53:29 19° 182° (S) 2,353 - -52.4°
Drops below altitude 10° 01:57:44 10° 138° (SE) 2,615 - -52.0°
Sets 02:00:39 0° 120° (ESE) 3,336 - -51.8°
